星链-1689 (STARLINK-1689 )

导读 | 豆包AI

STARLINK-1689是美国SpaceX公司星链(Starlink)低轨互联网卫星星座的成员卫星,于2020年9月3日发射。星链星座旨在为全球尤其是偏远地区提供高速低延迟宽带互联网服务,该卫星入轨后,持续参与星座组网,助力实现全球覆盖,推动互联网接入普及,目前星链已拥有超四千颗在轨卫星,超两百万用户,支撑视频会议、在线游戏等多场景应用。

Basic Information
目录编号:
46372
目录名称:
STARLINK-1689
国际标识:
2020-062AZ
轨道中心:
EARTH
卫星名称:
星链-1689
卫星全名:
星链-1689 (STARLINK-1689 )
卫星状态:
已陨落 最后检测时间 2025-09-07
发射日期:
2020-09-03 UTC
国别 :
美国 (US)
星等 :
--
Orbit Information
数据来源 国际轨道数据
星历时间: 2025-09-07T05:04:38+0800
轨道信息已过期188天
半长轴: 6561.392km
偏心率: 0.0011415
轨道倾角: 53.012°
近地点辐角 298.967°
升交点赤经 29.298°
平近点角 61.023°
近地点: 175.767km
远地点: 190.747km
周期: 88.156分钟
每日圈数: 16.334612
Detailed Information
固有亮度:
5
最大亮度:
2.5
卫星平台:
Starlink V1.0
覆盖范围:
全球
运营商:
太空探索技术公司
运营商所在国:
美国
制造商(研发单位):
太空探索技术公司
制造商所在国:
美国
使用方式:
暂无
Satellite Introduction
星链(Starlink)计划是由太空探索技术公司(SpaceX)提出的一个巨型低轨卫星互联网星座项目,计划在2019年至2024年间在太空搭建由约1.2万颗卫星组成的“星链”网络,其中1584颗将部署在地球上空550千米处的近地轨道,并从2020年开始工作。该卫星仍在工作。